ラッセル-リニア彗星

156P/Russell-LINEAR (2020)

English version
Home page
Updated on January 23, 2021

---------------------------------------------------------------------

・ プロフィール

・ 写真集

・ 軌道要素

Epoch 2020 Nov. 7.0 TT = JDT 2459160.5
T 2020 Nov. 17.87322 TT                                 Rudenko
q   1.3330176            (2000.0)            P               Q
n   0.15314455     Peri.    0.42763     +0.81128947     -0.55883944
a   3.4599383      Node    35.36933     +0.53551612     +0.59242160
e   0.6147279      Incl.   17.26317     +0.23458876     +0.58028884
P   6.44
From 282 observations 1986 Sept. 3-2020 Sept. 23, mean residual 0".5.

・ 星図

・ 光度変化

        m1 = 16.8 + 5 logΔ +   5.0 log r          [   ,-60]  (              〜2020年 9月18日)
        m1 = -3.5 + 5 logΔ + 120   log r          [-60,  0]  (2020年 9月18日〜2020年11月17日)
        m1 =  7.0 + 5 logΔ +  35   log r(t - 15)  [  0,   ]  (2020年11月17日〜              )

---------------------------------------------------------------------

軌道要素はM.P.E.C. 2020-S188に掲載されたものです。
星図はステラナビゲータ Ver.10 (アストロアーツ) で作成したものです。
光度グラフはComet for Windowsで作成したものです。

---------------------------------------------------------------------

Copyright(C) Seiichi Yoshida (comet@aerith.net). All rights reserved.